TimeCST,TemperatureF,Dew PointF,Humidity,Sea Level PressureIn,VisibilityMPH,Wind Direction,Wind SpeedMPH,Gust SpeedMPH,PrecipitationIn,Events,Conditions,WindDirDegrees,DateUTC
12:15 AM,32.0,32.0,100,29.60,5.0,SE,11.5,-,N/A,Rain,Light Rain,140,2013-03-04 06:15:00
12:35 AM,32.0,32.0,100,29.65,7.0,SW,18.4,23.0,N/A,Rain,Light Rain,220,2013-03-04 06:35:00
12:55 AM,32.0,32.0,100,29.64,2.0,SSW,15.0,24.2,0.05,Snow,Light Snow,200,2013-03-04 06:55:00
1:15 AM,32.0,32.0,100,29.63,1.2,South,10.4,-,0.04,Snow,Light Snow,190,2013-03-04 07:15:00
1:35 AM,32.0,32.0,100,29.63,1.0,South,6.9,-,0.13,Snow,Light Snow,170,2013-03-04 07:35:00
1:55 AM,32.0,32.0,100,29.62,1.2,South,8.1,-,0.19,Snow,Light Snow,170,2013-03-04 07:55:00
2:15 AM,32.0,32.0,100,29.61,1.2,South,4.6,-,0.01,Snow,Light Snow,180,2013-03-04 08:15:00
2:55 AM,32.0,32.0,100,29.63,2.0,SSW,10.4,-,0.02,Snow,Light Snow,210,2013-03-04 08:55:00
3:15 AM,32.0,32.0,100,29.62,-9999.0,SW,9.2,-,0.12,Snow,Heavy Snow,220,2013-03-04 09:15:00
3:35 AM,32.0,32.0,100,29.62,-9999.0,SW,8.1,-,0.36,Snow,Heavy Snow,220,2013-03-04 09:35:00
3:55 AM,32.0,32.0,100,29.62,-9999.0,SW,8.1,-,0.40,Snow,Heavy Snow,230,2013-03-04 09:55:00
4:15 AM,32.0,32.0,100,29.62,-9999.0,SW,6.9,-,N/A,,Unknown,230,2013-03-04 10:15:00
4:35 AM,32.0,32.0,100,29.62,10.0,West,9.2,-,N/A,,Overcast,260,2013-03-04 10:35:00
4:55 AM,32.0,32.0,100,29.62,10.0,WSW,9.2,-,N/A,,Overcast,250,2013-03-04 10:55:00
5:15 AM,32.0,32.0,100,29.62,10.0,West,10.4,-,N/A,,Overcast,270,2013-03-04 11:15:00
5:35 AM,32.0,32.0,100,29.62,10.0,West,9.2,-,N/A,,Overcast,270,2013-03-04 11:35:00
5:55 AM,32.0,32.0,100,29.62,10.0,West,12.7,-,N/A,,Overcast,260,2013-03-04 11:55:00
6:15 AM,32.0,32.0,100,29.62,10.0,West,12.7,-,N/A,,Overcast,260,2013-03-04 12:15:00
6:35 AM,32.0,32.0,100,29.62,10.0,West,15.0,-,N/A,,Mostly Cloudy,260,2013-03-04 12:35:00
6:55 AM,32.0,32.0,100,29.63,10.0,WSW,13.8,-,N/A,,Scattered Clouds,250,2013-03-04 12:55:00
7:15 AM,30.2,30.2,100,29.63,10.0,WSW,13.8,-,N/A,,Partly Cloudy,250,2013-03-04 13:15:00
7:35 AM,28.4,28.4,100,29.63,10.0,WSW,16.1,-,N/A,,Clear,250,2013-03-04 13:35:00
7:55 AM,28.4,26.6,93,29.63,10.0,West,16.1,21.9,N/A,,Clear,260,2013-03-04 13:55:00
8:15 AM,28.4,26.6,93,29.62,10.0,West,16.1,-,N/A,,Clear,260,2013-03-04 14:15:00
8:35 AM,26.6,26.6,100,29.63,10.0,WSW,16.1,-,N/A,,Partly Cloudy,250,2013-03-04 14:35:00
8:55 AM,26.6,26.6,100,29.64,10.0,WSW,15.0,18.4,N/A,,Partly Cloudy,250,2013-03-04 14:55:00
9:15 AM,28.4,26.6,93,29.64,10.0,WSW,13.8,-,N/A,,Partly Cloudy,240,2013-03-04 15:15:00
9:35 AM,28.4,28.4,100,29.64,10.0,WSW,15.0,-,N/A,,Mostly Cloudy,240,2013-03-04 15:35:00
9:55 AM,28.4,28.4,100,29.64,10.0,WSW,13.8,-,N/A,,Overcast,250,2013-03-04 15:55:00
10:15 AM,30.2,28.4,93,29.64,10.0,West,15.0,-,N/A,Rain,Freezing Rain,260,2013-03-04 16:15:00
10:35 AM,30.2,30.2,100,29.65,10.0,WSW,13.8,19.6,N/A,Rain,Freezing Rain,250,2013-03-04 16:35:00
10:55 AM,30.2,30.2,100,29.65,10.0,WSW,13.8,-,N/A,Rain,Freezing Rain,250,2013-03-04 16:55:00
11:15 AM,30.2,30.2,100,29.65,10.0,WSW,13.8,-,N/A,,Overcast,250,2013-03-04 17:15:00
11:35 AM,32.0,32.0,100,29.66,10.0,West,12.7,-,N/A,Rain,Light Rain,260,2013-03-04 17:35:00
11:55 AM,32.0,32.0,100,29.66,10.0,WSW,12.7,-,N/A,,Overcast,250,2013-03-04 17:55:00
12:15 PM,32.0,32.0,100,29.66,10.0,WSW,8.1,-,N/A,,Overcast,250,2013-03-04 18:15:00
12:55 PM,28.4,28.4,100,29.67,3.0,NW,16.1,-,N/A,Rain,Freezing Rain,310,2013-03-04 18:55:00
1:15 PM,26.6,26.6,100,29.68,3.0,NW,15.0,-,N/A,Rain,Freezing Rain,310,2013-03-04 19:15:00
1:35 PM,26.6,26.6,100,29.68,4.0,WNW,18.4,-,N/A,Rain,Freezing Rain,300,2013-03-04 19:35:00
1:55 PM,26.6,26.6,100,29.69,4.0,WNW,15.0,19.6,N/A,Rain,Freezing Rain,300,2013-03-04 19:55:00
2:15 PM,24.8,24.8,100,29.69,10.0,NW,17.3,24.2,N/A,Rain,Freezing Rain,310,2013-03-04 20:15:00
2:35 PM,24.8,24.8,100,29.70,10.0,WNW,18.4,-,N/A,Rain,Freezing Rain,300,2013-03-04 20:35:00
3:15 PM,24.8,24.8,100,29.71,10.0,NW,19.6,26.5,N/A,Rain,Freezing Rain,310,2013-03-04 21:15:00
3:35 PM,24.8,24.8,100,29.73,9.0,NW,17.3,25.3,N/A,Rain,Freezing Rain,310,2013-03-04 21:35:00
3:55 PM,24.8,24.8,100,29.73,5.0,NW,17.3,25.3,N/A,Snow,Light Snow,310,2013-03-04 21:55:00
4:15 PM,23.0,23.0,100,29.74,3.0,NW,20.7,26.5,0.01,Snow,Light Snow,320,2013-03-04 22:15:00
4:35 PM,23.0,23.0,100,29.75,1.8,NW,25.3,31.1,0.07,Snow,Light Snow,320,2013-03-04 22:35:00
4:55 PM,23.0,23.0,100,29.75,1.8,NW,23.0,28.8,0.13,Snow,Light Snow,310,2013-03-04 22:55:00
5:15 PM,23.0,23.0,100,29.77,2.5,NW,24.2,33.4,0.01,Snow,Light Snow,320,2013-03-04 23:15:00
5:35 PM,23.0,23.0,100,29.78,1.5,NNW,29.9,40.3,0.02,,Overcast,330,2013-03-04 23:35:00
5:55 PM,23.0,23.0,100,29.80,0.5,NNW,27.6,35.7,0.08,Snow,Snow,330,2013-03-04 23:55:00
6:15 PM,23.0,23.0,100,29.83,0.8,NNW,26.5,35.7,0.05,Snow,Light Snow,330,2013-03-05 00:15:00
6:35 PM,23.0,23.0,100,29.84,0.5,NNW,26.5,38.0,0.11,Snow,Snow,340,2013-03-05 00:35:00
6:55 PM,23.0,23.0,100,29.86,0.2,NNW,29.9,42.6,0.33,Snow,Heavy Snow,330,2013-03-05 00:55:00
7:15 PM,23.0,23.0,100,29.88,0.8,NNW,28.8,38.0,0.28,Snow,Light Snow,330,2013-03-05 01:15:00
7:35 PM,23.0,23.0,100,29.90,0.8,NNW,29.9,39.1,0.67,Snow,Light Snow,340,2013-03-05 01:35:00
7:55 PM,23.0,23.0,100,29.92,0.8,NNW,28.8,36.8,0.97,Snow,Light Snow,340,2013-03-05 01:55:00
8:35 PM,23.0,23.0,100,29.96,1.0,NNW,25.3,36.8,0.22,Snow,Light Snow,340,2013-03-05 02:35:00
8:55 PM,23.0,23.0,100,29.97,1.2,NNW,27.6,36.8,0.40,Snow,Light Snow,340,2013-03-05 02:55:00
9:15 PM,23.0,23.0,100,30.00,1.5,NNW,28.8,35.7,0.11,Snow,Light Snow,340,2013-03-05 03:15:00
9:35 PM,23.0,23.0,100,30.01,1.8,NNW,28.8,36.8,0.28,Snow,Light Snow,340,2013-03-05 03:35:00
9:55 PM,23.0,23.0,100,30.03,2.0,NNW,24.2,34.5,0.50,Snow,Light Snow,340,2013-03-05 03:55:00
10:15 PM,21.2,21.2,100,30.03,2.0,North,28.8,34.5,0.10,Snow,Light Snow,350,2013-03-05 04:15:00
10:35 PM,21.2,21.2,100,30.04,3.0,NNW,21.9,28.8,0.18,Snow,Light Snow,340,2013-03-05 04:35:00
10:55 PM,21.2,21.2,100,30.06,1.8,North,24.2,31.1,0.28,Snow,Light Snow,350,2013-03-05 04:55:00
11:15 PM,19.4,19.4,100,30.07,3.0,North,23.0,33.4,0.04,Snow,Light Snow,350,2013-03-05 05:15:00
11:55 PM,19.4,19.4,100,30.10,5.0,North,25.3,31.1,0.08,Snow,Light Snow,350,2013-03-05 05:55:00